Location: Unspecified
(49.9820°N, 20.4363°E)
Time: 23:26:58
(UTC+02:00)

ACS3 Solar Sail - Visible Passes

Search period start: 16 April 2026 00:00
Search period end: 26 April 2026 00:00
Orbit: 872 x 976 km, 97.2° (Epoch: 16 April)

Date Brightness Start Highest point End Pass type
(mag) Time Alt. Az. Time Alt. Az. Time Alt. Az.
16 Apr 3.4 00:31:53 10° NE 00:36:14 20° E 00:36:40 20° E visible
16 Apr 1.6 02:13:17 10° N 02:19:18 80° WNW 02:20:14 65° SW visible
16 Apr 3.5 03:57:01 10° NNW 04:00:51 18° NW 04:03:48 13° W visible
17 Apr 3.2 00:41:14 10° NE 00:46:03 24° E 00:46:33 24° E visible
17 Apr 1.8 02:22:59 10° N 02:28:57 68° WNW 02:30:07 56° SW visible
17 Apr 3.6 04:07:01 10° NNW 04:10:20 15° NW 04:13:40 10° W visible
18 Apr 3.0 00:50:37 10° NNE 00:55:46 28° E 00:56:22 28° E visible
18 Apr 1.9 02:32:36 10° N 02:38:30 58° WNW 02:39:55 47° WSW visible
18 Apr 3.7 04:17:03 10° NNW 04:19:44 13° NW 04:22:25 10° WNW visible
19 Apr 2.8 00:59:57 10° NNE 01:05:24 34° E 01:06:06 33° ESE visible
19 Apr 2.2 02:42:11 10° N 02:47:58 50° WNW 02:49:39 39° WSW visible
19 Apr 3.8 04:27:16 10° NNW 04:29:02 11° NW 04:30:49 10° WNW visible
20 Apr 2.5 01:09:16 10° NNE 01:14:56 40° E 01:15:45 38° ESE visible
20 Apr 2.4 02:51:42 10° N 02:57:21 43° WNW 02:59:18 33° WSW visible
21 Apr 2.3 01:18:33 10° NNE 01:24:23 47° E 01:25:20 43° ESE visible
21 Apr 2.6 03:01:12 10° N 03:06:39 37° WNW 03:08:53 28° WSW visible
22 Apr 2.1 01:27:46 10° NNE 01:33:45 55° E 01:34:51 49° SE visible
22 Apr 2.8 03:10:37 10° N 03:15:51 32° WNW 03:18:23 23° WSW visible
22 Apr 3.9 23:57:22 10° ENE 23:59:29 12° E 00:00:45 11° E visible
23 Apr 1.9 01:36:58 10° NNE 01:43:01 65° E 01:44:17 53° SSE visible
23 Apr 3.0 03:19:58 10° N 03:24:58 28° WNW 03:27:49 19° W visible
24 Apr 3.8 00:05:40 10° NE 00:08:50 14° E 00:10:07 14° E visible
24 Apr 1.8 01:46:06 10° NNE 01:52:12 76° E 01:53:39 54° S visible
24 Apr 3.2 03:29:19 10° N 03:34:00 24° WNW 03:37:10 16° W visible
25 Apr 3.6 00:14:14 10° NE 00:18:06 17° E 00:19:25 16° E visible
25 Apr 1.7 01:55:11 10° NNE 02:01:19 88° ESE 02:02:56 52° S visible
25 Apr 3.3 03:38:36 10° N 03:42:57 21° WNW 03:46:27 13° W visible
